TimeMST,TemperatureF,Dew PointF,Humidity,Sea Level PressureIn,VisibilityMPH,Wind Direction,Wind SpeedMPH,Gust SpeedMPH,PrecipitationIn,Events,Conditions,WindDirDegrees,DateUTC
12:36 AM,37.4,30.2,75,30.21,10.0,SSW,12.7,-,N/A,,Mostly Cloudy,200,2013-02-01 07:36:00
12:43 AM,37.4,30.2,75,30.20,10.0,South,11.5,-,N/A,,Mostly Cloudy,190,2013-02-01 07:43:00
12:53 AM,37.0,30.9,79,30.25,10.0,SSW,11.5,-,N/A,,Mostly Cloudy,200,2013-02-01 07:53:00
1:04 AM,37.4,30.2,75,30.21,10.0,SSW,13.8,-,N/A,,Overcast,210,2013-02-01 08:04:00
1:53 AM,37.9,30.9,76,30.23,10.0,SSW,18.4,-,N/A,,Overcast,210,2013-02-01 08:53:00
2:53 AM,37.0,30.9,79,30.23,10.0,SSW,11.5,-,N/A,,Overcast,210,2013-02-01 09:53:00
3:53 AM,37.9,30.0,73,30.23,10.0,SSW,16.1,-,N/A,,Overcast,210,2013-02-01 10:53:00
4:53 AM,34.0,30.0,85,30.24,10.0,SW,13.8,-,N/A,,Mostly Cloudy,230,2013-02-01 11:53:00
5:53 AM,37.0,28.9,73,30.22,10.0,SW,10.4,-,N/A,,Overcast,220,2013-02-01 12:53:00
6:53 AM,35.1,28.9,78,30.24,10.0,SSW,11.5,-,N/A,,Overcast,210,2013-02-01 13:53:00
7:53 AM,35.1,28.9,78,30.25,10.0,SW,16.1,-,N/A,,Mostly Cloudy,230,2013-02-01 14:53:00
8:53 AM,34.0,30.0,85,30.28,10.0,WSW,11.5,-,N/A,,Mostly Cloudy,250,2013-02-01 15:53:00
9:53 AM,34.0,30.0,85,30.31,10.0,WSW,11.5,-,N/A,,Overcast,250,2013-02-01 16:53:00
10:53 AM,35.1,30.9,85,30.32,10.0,SW,16.1,-,N/A,,Overcast,230,2013-02-01 17:53:00
11:12 AM,35.6,30.2,81,30.29,10.0,SW,13.8,-,N/A,,Overcast,230,2013-02-01 18:12:00
11:53 AM,37.0,32.0,82,30.33,10.0,SW,17.3,-,N/A,,Overcast,230,2013-02-01 18:53:00
12:53 PM,37.4,32.0,81,30.30,10.0,WSW,17.3,24.2,N/A,,Mostly Cloudy,240,2013-02-01 19:53:00
1:53 PM,39.0,32.0,76,30.32,10.0,WSW,19.6,25.3,N/A,,Mostly Cloudy,240,2013-02-01 20:53:00
2:53 PM,39.9,33.1,77,30.33,10.0,WSW,15.0,-,N/A,,Mostly Cloudy,250,2013-02-01 21:53:00
3:53 PM,37.9,32.0,79,30.35,10.0,WSW,15.0,-,N/A,,Scattered Clouds,250,2013-02-01 22:53:00
4:53 PM,37.0,32.0,82,30.37,10.0,WSW,10.4,-,N/A,,Scattered Clouds,240,2013-02-01 23:53:00
5:53 PM,30.9,30.0,96,30.38,10.0,SW,5.8,-,N/A,,Scattered Clouds,220,2013-02-02 00:53:00
6:53 PM,32.0,30.0,92,30.40,10.0,SW,9.2,-,N/A,,Scattered Clouds,230,2013-02-02 01:53:00
7:53 PM,32.0,30.0,92,30.41,10.0,West,6.9,-,N/A,,Mostly Cloudy,260,2013-02-02 02:53:00
8:53 PM,33.1,30.9,92,30.43,9.0,SW,3.5,-,N/A,,Overcast,220,2013-02-02 03:53:00
9:53 PM,34.0,30.0,85,30.44,10.0,SSW,5.8,-,N/A,,Overcast,200,2013-02-02 04:53:00
10:53 PM,33.1,28.0,82,30.45,10.0,SSW,5.8,-,N/A,,Mostly Cloudy,200,2013-02-02 05:53:00
11:09 PM,33.8,28.4,81,30.40,10.0,SSW,6.9,-,N/A,,Mostly Cloudy,210,2013-02-02 06:09:00
11:21 PM,33.8,28.4,81,30.40,10.0,SSW,5.8,-,N/A,,Mostly Cloudy,200,2013-02-02 06:21:00
11:53 PM,35.1,30.0,82,30.46,10.0,SSW,5.8,-,N/A,,Overcast,210,2013-02-02 06:53:00